.
WxDataArchive / Data Records for 2014-01-01
2013-12-31 January 2014 2014-01-02

Data Records for Wednesday, 01 January 2014

Time	Temp	Chill	HIndex	Humid	Dewpt	 Wind 	HiWind	WindDir	Rain 	Barom 
-----	----	-----	------	-----	-----	------	------	-------	-----	----- 
00:00	17.7	17.7	17.7	79	12.3	0	2	292	0.00	30.343 
00:05	17.8	17.8	17.8	79	12.4	0	1	292	0.00	30.343 
00:10	17.7	17.7	17.7	79	12.3	0	2	292	0.00	30.343 
00:15	17.8	17.8	17.8	80	12.7	0	1	292	0.00	30.338 
00:20	17.8	17.8	17.8	80	12.7	0	0	---	0.00	30.338 
00:25	17.8	17.8	17.8	80	12.7	0	2	292	0.00	30.338 
00:30	17.8	17.8	17.8	81	13.0	0	1	292	0.00	30.336 
00:35	17.7	17.7	17.7	81	12.9	0	2	292	0.00	30.336 
00:40	17.7	17.7	17.7	81	12.9	1	4	292	0.00	30.336 
00:45	17.5	17.5	17.5	81	12.7	1	3	292	0.00	30.329 
00:50	17.5	17.5	17.5	81	12.7	0	4	292	0.00	30.329 
00:55	17.5	17.5	17.5	81	12.7	0	2	292	0.00	30.329 
01:00	17.5	17.5	17.5	82	13.0	1	4	292	0.00	30.320 
01:05	17.5	17.5	17.5	82	13.0	1	3	292	0.00	30.320 
01:10	17.5	17.5	17.5	82	13.0	1	3	292	0.00	30.320 
01:15	17.5	17.5	17.5	82	13.0	1	3	22	0.00	30.317 
01:20	17.5	17.5	17.5	82	13.0	1	3	45	0.00	30.317 
01:25	17.5	17.5	17.5	82	13.0	0	3	45	0.00	30.317 
01:30	17.5	17.5	17.5	82	13.0	0	2	68	0.00	30.317 
01:35	17.5	17.5	17.5	82	13.0	0	3	68	0.00	30.317 
01:40	17.5	17.5	17.5	82	13.0	0	2	68	0.00	30.317 
01:45	17.5	17.5	17.5	82	13.0	0	3	68	0.00	30.313 
01:50	17.5	17.5	17.5	82	13.0	1	3	68	0.00	30.313 
01:55	17.5	17.5	17.5	83	13.2	0	2	68	0.00	30.313 
02:00	17.5	17.5	17.5	83	13.2	1	6	90	0.00	30.306 
02:05	17.3	17.3	17.3	82	12.8	2	5	90	0.00	30.306 
02:10	17.3	17.3	17.3	83	13.0	1	5	90	0.00	30.306 
02:15	17.3	17.3	17.3	82	12.8	2	4	90	0.00	30.316 
02:20	17.3	17.3	17.3	83	13.0	1	2	90	0.00	30.316 
02:25	17.3	17.3	17.3	83	13.0	1	4	90	0.00	30.316 
02:30	17.3	17.3	17.3	83	13.0	1	3	90	0.00	30.317 
02:35	17.3	17.3	17.3	82	12.8	1	3	90	0.00	30.317 
02:40	17.3	17.3	17.3	82	12.8	2	4	90	0.00	30.317 
02:45	17.5	17.5	17.5	82	13.0	1	5	90	0.00	30.318 
02:50	17.5	17.5	17.5	82	13.0	2	4	90	0.00	30.318 
02:55	17.5	17.5	17.5	82	13.0	1	4	90	0.00	30.318 
03:00	17.7	17.7	17.7	82	13.2	1	3	90	0.00	30.315 
03:05	17.7	17.7	17.7	82	13.2	1	2	90	0.00	30.315 
03:10	17.8	17.8	17.8	82	13.3	1	3	90	0.00	30.315 
03:15	17.8	17.8	17.8	82	13.3	1	4	90	0.00	30.319 
03:20	17.8	17.8	17.8	82	13.3	1	3	90	0.00	30.319 
03:25	17.8	17.8	17.8	82	13.3	1	4	90	0.00	30.319 
03:30	17.8	17.8	17.8	82	13.3	2	4	90	0.00	30.315 
03:35	17.8	17.8	17.8	82	13.3	1	3	90	0.00	30.315 
03:40	17.8	17.8	17.8	82	13.3	2	5	90	0.00	30.315 
03:45	17.7	17.7	17.7	82	13.2	1	3	90	0.00	30.320 
03:50	17.7	17.7	17.7	82	13.2	2	4	90	0.00	30.320 
03:55	17.8	17.8	17.8	83	13.5	1	5	90	0.00	30.320 
04:00	17.7	17.7	17.7	83	13.4	2	4	90	0.00	30.313 
04:05	17.8	17.8	17.8	83	13.5	1	3	90	0.00	30.313 
04:10	17.7	17.7	17.7	83	13.4	2	6	90	0.00	30.313 
04:15	17.7	17.7	17.7	84	13.7	2	6	90	0.00	30.307 
04:20	17.7	17.7	17.7	84	13.7	2	4	90	0.00	30.307 
04:25	17.7	17.7	17.7	84	13.7	1	4	90	0.00	30.307 
04:30	17.8	17.8	17.8	84	13.8	1	4	90	0.00	30.306 
04:35	17.8	17.8	17.8	84	13.8	1	4	90	0.00	30.306 
04:40	17.8	17.8	17.8	84	13.8	2	5	90	0.00	30.306 
04:45	17.8	17.8	17.8	84	13.8	2	6	90	0.00	30.301 
04:50	17.8	17.8	17.8	84	13.8	2	5	90	0.00	30.301 
04:55	17.8	17.8	17.8	84	13.8	1	3	90	0.00	30.301 
05:00	17.8	17.8	17.8	85	14.1	2	4	90	0.00	30.301 
05:05	17.8	17.8	17.8	85	14.1	2	4	90	0.00	30.301 
05:10	17.8	17.8	17.8	85	14.1	2	3	90	0.00	30.301 
05:15	18.0	18.0	18.0	85	14.3	1	4	90	0.00	30.296 
05:20	18.0	18.0	18.0	85	14.3	2	6	90	0.00	30.296 
05:25	17.8	17.8	17.8	85	14.1	2	5	90	0.00	30.296 
05:30	17.8	17.8	17.8	85	14.1	2	6	90	0.00	30.297 
05:35	17.8	17.8	17.8	85	14.1	1	4	90	0.00	30.297 
05:40	17.8	17.8	17.8	85	14.1	1	4	90	0.00	30.297 
05:45	17.8	17.8	17.8	85	14.1	1	4	90	0.00	30.297 
05:50	17.8	17.8	17.8	85	14.1	2	5	90	0.00	30.297 
05:55	17.8	17.8	17.8	85	14.1	1	5	90	0.00	30.297 
06:00	17.8	17.8	17.8	85	14.1	2	5	90	0.00	30.298 
06:05	17.8	17.8	17.8	85	14.1	2	5	90	0.00	30.298 
06:10	17.8	17.8	17.8	85	14.1	2	6	90	0.00	30.298 
06:15	17.8	17.8	17.8	85	14.1	2	5	90	0.00	30.303 
06:20	17.8	17.8	17.8	85	14.1	2	5	90	0.00	30.303 
06:25	17.8	17.8	17.8	84	13.8	2	5	90	0.00	30.303 
06:30	17.8	17.8	17.8	84	13.8	2	5	90	0.00	30.303 
06:35	17.8	17.8	17.8	84	13.8	2	5	90	0.00	30.303 
06:40	17.8	17.8	17.8	84	13.8	3	6	90	0.00	30.303 
06:45	17.8	17.8	17.8	84	13.8	3	5	90	0.00	30.300 
06:50	17.8	17.8	17.8	84	13.8	2	6	90	0.00	30.300 
06:55	17.8	17.8	17.8	84	13.8	3	7	90	0.00	30.300 
07:00	17.8	17.8	17.8	84	13.8	2	6	90	0.00	30.302 
07:05	17.8	17.8	17.8	84	13.8	3	9	90	0.00	30.302 
07:10	17.8	17.8	17.8	84	13.8	2	5	112	0.00	30.302 
07:15	17.8	17.8	17.8	84	13.8	3	7	90	0.00	30.300 
07:20	17.8	17.8	17.8	84	13.8	3	5	90	0.00	30.300 
07:25	17.8	17.8	17.8	84	13.8	3	7	90	0.00	30.300 
07:30	17.8	17.8	17.8	84	13.8	2	7	112	0.00	30.298 
07:35	17.8	17.8	17.8	84	13.8	2	6	90	0.00	30.298 
07:40	17.8	17.8	17.8	84	13.8	3	9	112	0.00	30.298 
07:45	17.8	17.8	17.8	84	13.8	2	6	90	0.00	30.296 
07:50	17.8	17.8	17.8	85	14.1	2	5	112	0.00	30.296 
07:55	17.8	17.8	17.8	85	14.1	2	5	112	0.00	30.296 
08:00	17.8	17.8	17.8	85	14.1	1	5	112	0.00	30.300 
08:05	17.8	17.8	17.8	85	14.1	1	5	112	0.00	30.300 
08:10	17.8	17.8	17.8	85	14.1	2	6	112	0.00	30.300 
08:15	17.8	17.8	17.8	85	14.1	2	5	112	0.00	30.300 
08:20	17.8	11.7	17.8	85	14.1	4	7	90	0.00	30.300 
08:25	17.8	17.8	17.8	85	14.1	2	5	90	0.00	30.300 
08:30	17.8	17.8	17.8	85	14.1	2	6	90	0.00	30.303 
08:35	17.8	17.8	17.8	85	14.1	3	7	90	0.00	30.303 
08:40	17.8	17.8	17.8	85	14.1	2	7	112	0.00	30.303 
08:45	17.8	17.8	17.8	85	14.1	2	10	112	0.00	30.302 
08:50	17.8	17.8	17.8	85	14.1	3	6	90	0.00	30.302 
08:55	18.0	18.0	18.0	85	14.3	2	7	90	0.00	30.302 
09:00	18.0	18.0	18.0	85	14.3	3	6	90	0.00	30.303 
09:05	18.0	18.0	18.0	85	14.3	3	9	90	0.00	30.303 
09:10	18.1	18.1	18.1	85	14.4	2	10	90	0.00	30.303 
09:15	18.1	12.0	18.1	85	14.4	4	11	90	0.00	30.309 
09:20	18.1	18.1	18.1	85	14.4	2	6	90	0.00	30.309 
09:25	18.3	18.3	18.3	85	14.6	2	7	112	0.00	30.309 
09:30	18.4	18.4	18.4	84	14.4	2	9	90	0.00	30.307 
09:35	18.4	12.4	18.4	84	14.4	4	9	90	0.00	30.307 
09:40	18.4	18.4	18.4	84	14.4	3	9	90	0.00	30.307 
09:45	18.4	18.4	18.4	84	14.4	3	9	90	0.00	30.313 
09:50	18.3	18.3	18.3	84	14.3	3	7	112	0.00	30.313 
09:55	18.4	18.4	18.4	85	14.7	2	7	90	0.00	30.313 
10:00	18.6	18.6	18.6	85	14.9	3	7	90	0.00	30.310 
10:05	18.6	18.6	18.6	84	14.6	3	7	90	0.00	30.310 
10:10	18.6	18.6	18.6	84	14.6	3	9	90	0.00	30.310 
10:15	18.6	18.6	18.6	84	14.6	3	7	90	0.00	30.305 
10:20	18.6	18.6	18.6	84	14.6	3	9	90	0.00	30.305 
10:25	18.6	12.6	18.6	84	14.6	4	10	90	0.00	30.305 
10:30	18.8	18.8	18.8	84	14.8	3	7	90	0.00	30.312 
10:35	18.8	18.8	18.8	84	14.8	2	6	112	0.00	30.312 
10:40	18.8	18.8	18.8	84	14.8	2	7	112	0.00	30.312 
10:45	18.8	18.8	18.8	83	14.5	3	8	90	0.00	30.311 
10:50	18.9	18.9	18.9	83	14.6	3	10	90	0.00	30.311 
10:55	18.9	12.9	18.9	83	14.6	4	9	90	0.00	30.311 
11:00	18.9	18.9	18.9	83	14.6	2	9	90	0.00	30.312 
11:05	18.9	18.9	18.9	83	14.6	3	11	112	0.00	30.312 
11:10	18.9	18.9	18.9	83	14.6	3	7	90	0.00	30.312 
11:15	19.1	19.1	19.1	83	14.8	2	6	90	0.00	30.303 
11:20	19.2	19.2	19.2	82	14.6	3	13	90	0.00	30.303 
11:25	19.2	13.3	19.2	82	14.6	4	10	90	0.00	30.303 
11:30	19.2	19.2	19.2	82	14.6	3	9	90	0.00	30.302 
11:35	19.2	13.3	19.2	82	14.6	4	11	112	0.00	30.302 
11:40	19.2	13.3	19.2	82	14.6	4	10	90	0.00	30.302 
11:45	19.2	13.3	19.2	82	14.6	4	11	90	0.00	30.299 
11:50	19.2	19.2	19.2	82	14.6	3	11	90	0.00	30.299 
11:55	19.2	19.2	19.2	82	14.6	3	10	90	0.00	30.299 
12:00	19.2	19.2	19.2	82	14.6	3	8	68	0.00	30.286 
12:05	19.2	19.2	19.2	81	14.3	3	11	90	0.00	30.286 
12:10	19.2	12.0	19.2	81	14.3	5	15	90	0.00	30.286 
12:15	19.1	13.2	19.1	81	14.2	4	11	112	0.00	30.279 
12:20	19.2	19.2	19.2	82	14.6	1	7	90	0.00	30.279 
12:25	19.2	12.0	19.2	81	14.3	5	11	112	0.00	30.279 
12:30	19.2	19.2	19.2	81	14.3	2	10	90	0.00	30.269 
12:35	19.2	19.2	19.2	81	14.3	3	7	90	0.00	30.269 
12:40	19.2	12.0	19.2	81	14.3	5	12	90	0.00	30.269 
12:45	19.2	13.3	19.2	81	14.3	4	13	112	0.00	30.260 
12:50	19.4	19.4	19.4	82	14.8	2	9	90	0.00	30.260 
12:55	19.2	19.2	19.2	81	14.3	2	10	112	0.00	30.260 
13:00	19.1	19.1	19.1	81	14.2	2	5	90	0.00	30.255 
13:05	18.9	18.9	18.9	81	14.1	2	6	90	0.00	30.255 
13:10	18.8	18.8	18.8	81	14.0	2	11	90	0.00	30.255 
13:15	18.8	18.8	18.8	81	14.0	2	7	112	0.00	30.248 
13:20	18.8	18.8	18.8	81	14.0	2	5	112	0.00	30.248 
13:25	18.9	18.9	18.9	81	14.1	2	6	112	0.00	30.248 
13:30	18.8	12.8	18.8	81	14.0	4	10	112	0.00	30.244 
13:35	18.6	18.6	18.6	81	13.8	3	10	90	0.00	30.244 
13:40	18.6	18.6	18.6	81	13.8	2	7	90	0.00	30.244 
13:45	18.6	18.6	18.6	81	13.8	2	6	90	0.00	30.241 
13:50	18.6	18.6	18.6	81	13.8	3	10	90	0.00	30.241 
13:55	18.6	18.6	18.6	81	13.8	1	5	112	0.00	30.241 
14:00	18.6	18.6	18.6	81	13.8	2	6	112	0.00	30.239 
14:05	18.6	18.6	18.6	81	13.8	3	6	112	0.00	30.239 
14:10	18.4	18.4	18.4	81	13.6	3	7	90	0.00	30.239 
14:15	18.4	11.1	18.4	81	13.6	5	11	112	0.00	30.238 
14:20	18.4	18.4	18.4	81	13.6	3	9	90	0.00	30.238 
14:25	18.3	18.3	18.3	82	13.7	3	15	112	0.00	30.238 
14:30	18.4	18.4	18.4	81	13.6	3	12	112	0.00	30.230 
14:35	18.4	12.4	18.4	81	13.6	4	10	112	0.00	30.230 
14:40	18.4	18.4	18.4	82	13.8	2	7	90	0.00	30.230 
14:45	18.4	18.4	18.4	81	13.6	3	10	90	0.00	30.233 
14:50	18.3	18.3	18.3	81	13.5	3	9	90	0.00	30.233 
14:55	18.3	18.3	18.3	81	13.5	3	9	90	0.00	30.233 
15:00	18.1	18.1	18.1	81	13.3	3	10	90	0.00	30.230 
15:05	18.0	11.9	18.0	81	13.2	4	9	90	0.00	30.230 
15:10	18.0	18.0	18.0	82	13.5	2	7	112	0.00	30.230 
15:15	18.0	18.0	18.0	82	13.5	3	10	90	0.00	30.232 
15:20	18.0	18.0	18.0	82	13.5	2	10	90	0.00	30.232 
15:25	18.0	18.0	18.0	82	13.5	3	7	112	0.00	30.232 
15:30	18.0	18.0	18.0	82	13.5	3	10	112	0.00	30.236 
15:35	18.0	18.0	18.0	82	13.5	3	9	112	0.00	30.236 
15:40	17.8	11.7	17.8	82	13.3	4	12	90	0.00	30.236 
15:45	17.8	17.8	17.8	82	13.3	3	7	90	0.00	30.230 
15:50	18.0	18.0	18.0	82	13.5	1	4	90	0.00	30.230 
15:55	17.8	17.8	17.8	82	13.3	3	7	90	0.00	30.230 
16:00	17.8	17.8	17.8	82	13.3	2	5	90	0.00	30.228 
16:05	17.8	17.8	17.8	82	13.3	1	6	90	0.00	30.228 
16:10	17.8	17.8	17.8	82	13.3	2	6	68	0.00	30.228 
16:15	17.7	17.7	17.7	82	13.2	3	10	112	0.00	30.227 
16:20	17.5	17.5	17.5	82	13.0	3	13	90	0.00	30.227 
16:25	17.5	17.5	17.5	83	13.2	2	6	90	0.00	30.227 
16:30	17.5	17.5	17.5	83	13.2	3	10	90	0.00	30.226 
16:35	17.3	17.3	17.3	83	13.0	3	9	90	0.00	30.226 
16:40	17.3	11.1	17.3	83	13.0	4	12	112	0.00	30.226 
16:45	17.3	11.1	17.3	83	13.0	4	10	90	0.00	30.227 
16:50	17.2	11.0	17.2	83	12.9	4	11	112	0.00	30.227 
16:55	17.2	17.2	17.2	83	12.9	3	7	112	0.00	30.227 
17:00	16.9	16.9	16.9	83	12.6	3	9	90	0.00	30.227 
17:05	16.9	16.9	16.9	84	12.9	2	5	112	0.00	30.227 
17:10	16.7	16.7	16.7	84	12.7	2	6	90	0.00	30.227 
17:15	16.5	16.5	16.5	84	12.5	1	6	112	0.00	30.226 
17:20	16.4	16.4	16.4	84	12.4	2	8	90	0.00	30.226 
17:25	16.1	16.1	16.1	84	12.1	2	10	90	0.00	30.226 
17:30	16.1	16.1	16.1	84	12.1	2	7	90	0.00	30.227 
17:35	15.9	15.9	15.9	84	11.9	3	10	90	0.00	30.227 
17:40	15.7	15.7	15.7	84	11.7	3	9	90	0.00	30.227 
17:45	15.7	15.7	15.7	84	11.7	3	10	90	0.00	30.227 
17:50	15.6	15.6	15.6	84	11.6	2	10	112	0.00	30.227 
17:55	15.6	15.6	15.6	84	11.6	2	6	112	0.00	30.227 
18:00	15.4	15.4	15.4	84	11.4	3	12	112	0.00	30.229 
18:05	15.4	15.4	15.4	84	11.4	2	9	90	0.00	30.229 
18:10	15.2	15.2	15.2	84	11.3	2	7	112	0.00	30.229 
18:15	15.2	15.2	15.2	84	11.3	1	4	90	0.00	30.226 
18:20	15.1	15.1	15.1	84	11.2	2	10	90	0.00	30.226 
18:25	14.9	14.9	14.9	84	11.0	2	7	90	0.00	30.226 
18:30	14.8	14.8	14.8	84	10.9	3	9	90	0.00	30.227 
18:35	14.8	14.8	14.8	84	10.9	2	9	112	0.00	30.227 
18:40	14.8	14.8	14.8	84	10.9	3	10	90	0.00	30.227 
18:45	14.6	14.6	14.6	84	10.7	2	6	112	0.00	30.234 
18:50	14.6	14.6	14.6	84	10.7	2	11	90	0.00	30.234 
18:55	14.4	14.4	14.4	84	10.5	2	6	90	0.00	30.234 
19:00	14.4	14.4	14.4	83	10.2	2	7	90	0.00	30.232 
19:05	14.4	14.4	14.4	83	10.2	2	10	90	0.00	30.232 
19:10	14.4	14.4	14.4	83	10.2	1	6	90	0.00	30.232 
19:15	14.4	14.4	14.4	84	10.5	2	10	112	0.00	30.230 
19:20	14.4	14.4	14.4	84	10.5	1	4	112	0.00	30.230 
19:25	14.4	14.4	14.4	83	10.2	3	13	90	0.00	30.230 
19:30	14.4	14.4	14.4	83	10.2	3	10	90	0.00	30.231 
19:35	14.4	14.4	14.4	83	10.2	1	10	90	0.00	30.231 
19:40	14.4	14.4	14.4	83	10.2	3	11	90	0.00	30.231 
19:45	14.3	14.3	14.3	83	10.1	2	12	112	0.00	30.224 
19:50	14.3	14.3	14.3	83	10.1	2	11	68	0.00	30.224 
19:55	14.4	14.4	14.4	83	10.2	2	10	112	0.00	30.224 
20:00	14.3	14.3	14.3	83	10.1	3	12	90	0.00	30.223 
20:05	14.3	14.3	14.3	83	10.1	3	10	112	0.00	30.223 
20:10	14.3	7.6	14.3	83	10.1	4	10	112	0.00	30.223 
20:15	14.1	14.1	14.1	83	9.9	3	9	68	0.00	30.217 
20:20	14.1	14.1	14.1	83	9.9	2	6	112	0.00	30.217 
20:25	14.1	14.1	14.1	84	10.2	3	7	90	0.00	30.217 
20:30	14.1	14.1	14.1	84	10.2	2	7	112	0.00	30.215 
20:35	14.1	14.1	14.1	84	10.2	3	7	112	0.00	30.215 
20:40	14.1	14.1	14.1	84	10.2	3	12	112	0.00	30.215 
20:45	14.1	14.1	14.1	84	10.2	2	7	112	0.00	30.210 
20:50	14.0	14.0	14.0	84	10.1	2	10	112	0.00	30.210 
20:55	14.0	7.3	14.0	84	10.1	4	11	90	0.00	30.210 
21:00	14.0	14.0	14.0	84	10.1	3	7	90	0.00	30.203 
21:05	14.0	14.0	14.0	84	10.1	3	9	90	0.00	30.203 
21:10	14.0	14.0	14.0	84	10.1	3	11	112	0.00	30.203 
21:15	14.0	14.0	14.0	84	10.1	2	9	112	0.00	30.198 
21:20	14.0	14.0	14.0	84	10.1	2	7	90	0.00	30.198 
21:25	14.0	14.0	14.0	84	10.1	3	10	90	0.00	30.198 
21:30	14.0	14.0	14.0	84	10.1	3	9	90	0.00	30.195 
21:35	14.0	14.0	14.0	84	10.1	2	7	90	0.00	30.195 
21:40	14.1	14.1	14.1	84	10.2	2	7	90	0.00	30.195 
21:45	14.1	14.1	14.1	84	10.2	2	7	90	0.00	30.193 
21:50	14.1	14.1	14.1	84	10.2	2	8	90	0.00	30.193 
21:55	14.1	14.1	14.1	84	10.2	1	3	90	0.00	30.193 
22:00	14.1	14.1	14.1	84	10.2	3	9	90	0.00	30.181 
22:05	14.1	14.1	14.1	84	10.2	3	9	90	0.00	30.181 
22:10	14.1	14.1	14.1	84	10.2	3	7	112	0.00	30.181 
22:15	14.1	14.1	14.1	85	10.4	1	6	45	0.00	30.181 
22:20	14.1	14.1	14.1	85	10.4	2	7	90	0.00	30.181 
22:25	14.3	14.3	14.3	85	10.6	3	10	112	0.00	30.181 
22:30	14.3	14.3	14.3	85	10.6	1	4	90	0.00	30.178 
22:35	14.3	14.3	14.3	85	10.6	2	6	90	0.00	30.178 
22:40	14.3	14.3	14.3	85	10.6	2	6	90	0.00	30.178 
22:45	14.3	14.3	14.3	85	10.6	2	4	90	0.00	30.179 
22:50	14.4	14.4	14.4	85	10.7	1	5	112	0.00	30.179 
22:55	14.4	14.4	14.4	85	10.7	2	7	112	0.00	30.179 
23:00	14.4	14.4	14.4	85	10.7	1	6	90	0.00	30.174 
23:05	14.4	14.4	14.4	85	10.7	2	8	90	0.00	30.174 
23:10	14.4	14.4	14.4	85	10.7	1	5	90	0.00	30.174 
23:15	14.6	14.6	14.6	85	10.9	1	10	90	0.00	30.167 
23:20	14.6	14.6	14.6	85	10.9	2	7	90	0.00	30.167 
23:25	14.6	14.6	14.6	85	10.9	1	6	112	0.00	30.167 
23:30	14.6	14.6	14.6	85	10.9	2	7	90	0.00	30.162 
23:35	14.6	14.6	14.6	85	10.9	1	6	112	0.00	30.162 
23:40	14.6	14.6	14.6	85	10.9	2	4	90	0.00	30.162 
23:45	14.6	14.6	14.6	85	10.9	2	6	90	0.00	30.152 
23:50	14.6	14.6	14.6	85	10.9	2	9	68	0.00	30.152 
23:55	14.8	14.8	14.8	85	11.1	2	7	112	0.00	30.152 

CoCoRaHS
IN-AL-39
A2 Web Hosting
Creative Commons License
GoDaddy
search engine by freefind advanced

loaded 2018-11-13 02:10:02 • last modified 2010-11-18 10:43:29
Privacy PolicyDisclaimer
• wx.awcolley.com is powered by PmWiki v.2002016 •
• all content (unless otherwise noted) © 2018 A W Colley